Weather History for KJWG - December, 2013

Change the Weather History Date:

Saturday, December 7, 2013

  Actual Average Record
Temperature  
Mean Temperature 12 °F -  
Max Temperature 18 °F 51 °F 80 °F (1966)
Min Temperature 6 °F 29 °F 6 °F (2013)
Degree Days  
Heating Degree Days 53    
Moisture  
Dew Point 7 °F    
Average Humidity 75    
Maximum Humidity 82    
Minimum Humidity 69    
Precipitation  
Precipitation 0.00 in - - ()
Sea Level Pressure  
Sea Level Pressure 30.46 in    
Wind  
Wind Speed 9 mph (NE)    
Max Wind Speed 14 mph    
Max Gust Speed -    
Visibility 10 miles    
Events      
Averages and records for this station are not official NWS values.
T = Trace of Precipitation, MM = Missing Value Source: NWS Daily Summary

Daily Weather History Graph

Daily Weather History Graph

Search for Another Location

Airport or City:

Trip Planner

Search our weather history database for the weather conditions in past years. The results will help you decide how hot, cold, wet, or windy it might be!

Date:

Astronomy

Dec. 07, 2013 Rise Set
Actual Time 7:30 AM CST 5:19 PM CST
Civil Twilight 7:02 AM CST 5:48 PM CST
Nautical Twilight 6:30 AM CST 6:19 PM CST
Astronomical Twilight 5:59 AM CST 6:50 PM CST
Moon 11:23 AM CST (12/7) 10:55 PM CST (12/7)
Length of Visible Light 10h 45m
Length of Day
9h 48m
Waxing Crescent, 29% of the Moon is Illuminated
Dec 7
Waxing Crescent
Dec 9
First Quarter
Dec 17
Full
Dec 25
Last Quarter
Jan 1
New

Hourly Weather History & Observations

Time (CST) Temp. Windchill Dew Point Humidity Pressure Visibility Wind Dir Wind Speed Gust Speed Precip Events Conditions
12:15 AM 10.0 °F -0.9 °F 3.4 °F 74% 30.58 in 10.0 mi North 6.9 mph - N/A   Clear
12:35 AM 9.9 °F -1.1 °F 3.2 °F 74% 30.58 in 10.0 mi North 6.9 mph - N/A   Clear
12:55 AM 9.9 °F -2.2 °F 3.0 °F 74% 30.59 in 10.0 mi North 8.1 mph - N/A   Clear
1:15 AM 9.9 °F -3.1 °F 2.5 °F 72% 30.59 in 10.0 mi North 9.2 mph - N/A   Clear
1:35 AM 9.3 °F -2.8 °F 2.3 °F 73% 30.59 in 10.0 mi North 8.1 mph - N/A   Clear
1:55 AM 9.3 °F -3.8 °F 2.3 °F 73% 30.58 in 10.0 mi North 9.2 mph - N/A   Clear
2:15 AM 9.3 °F -2.8 °F 2.1 °F 73% 30.58 in 10.0 mi North 8.1 mph - N/A   Clear
2:35 AM 9.0 °F -3.2 °F 2.1 °F 74% 30.58 in 10.0 mi North 8.1 mph - N/A   Clear
2:55 AM 9.0 °F -4.2 °F 2.1 °F 74% 30.59 in 10.0 mi North 9.2 mph - N/A   Clear
3:15 AM 9.0 °F -4.2 °F 2.1 °F 74% 30.58 in 10.0 mi North 9.2 mph - N/A   Clear
3:35 AM 8.8 °F -5.3 °F 1.9 °F 74% 30.58 in 10.0 mi North 10.4 mph - N/A   Clear
3:55 AM 8.6 °F -4.7 °F 1.9 °F 74% 30.58 in 10.0 mi North 9.2 mph - N/A   Clear
4:15 AM 8.6 °F -6.3 °F 2.1 °F 75% 30.57 in 10.0 mi North 11.5 mph - N/A   Clear
4:35 AM 8.1 °F -6.2 °F 1.9 °F 76% 30.57 in 10.0 mi North 10.4 mph - N/A   Clear
4:55 AM 7.7 °F -5.8 °F 2.1 °F 78% 30.57 in 10.0 mi North 9.2 mph - N/A   Clear
5:15 AM 7.5 °F -6.9 °F 1.9 °F 78% 30.57 in 10.0 mi North 10.4 mph - N/A   Clear
5:35 AM 7.3 °F -7.1 °F 1.9 °F 79% 30.57 in 10.0 mi North 10.4 mph - N/A   Clear
5:55 AM 7.2 °F -6.4 °F 1.8 °F 79% 30.57 in 10.0 mi North 9.2 mph - N/A   Clear
6:15 AM 7.2 °F -6.4 °F 1.8 °F 79% 30.58 in 10.0 mi North 9.2 mph - N/A   Clear
6:35 AM 7.2 °F -6.4 °F 1.8 °F 79% 30.58 in 10.0 mi North 9.2 mph - N/A   Clear
6:55 AM 6.8 °F -8.6 °F 1.8 °F 80% 30.57 in 10.0 mi North 11.5 mph - N/A   Clear
7:15 AM 6.8 °F -8.6 °F 1.8 °F 80% 30.57 in 10.0 mi North 11.5 mph - N/A   Clear
7:35 AM 6.4 °F -6.3 °F 1.8 °F 81% 30.57 in 10.0 mi North 8.1 mph - N/A   Clear
7:55 AM 6.3 °F -6.5 °F 1.8 °F 82% 30.58 in 10.0 mi North 8.1 mph - N/A   Clear
8:15 AM 6.8 °F -6.9 °F 2.3 °F 82% 30.59 in 10.0 mi North 9.2 mph - N/A   Clear
8:35 AM 8.1 °F -6.2 °F 2.8 °F 79% 30.60 in 10.0 mi North 10.4 mph - N/A   Clear
8:55 AM 9.0 °F -6.6 °F 3.4 °F 78% 30.59 in 10.0 mi NNE 12.7 mph - N/A   Clear
9:15 AM 9.5 °F -5.2 °F 3.7 °F 77% 30.60 in 10.0 mi NNE 11.5 mph - N/A   Clear
9:35 AM 10.2 °F -3.5 °F 4.3 °F 77% 30.60 in 10.0 mi NNE 10.4 mph - N/A   Clear
9:55 AM 10.9 °F -1.8 °F 4.6 °F 76% 30.61 in 10.0 mi NNE 9.2 mph - N/A   Clear
10:15 AM 12.2 °F -0.2 °F 5.2 °F 73% 30.60 in 10.0 mi NE 9.2 mph - N/A   Clear
10:35 AM 12.7 °F 1.4 °F 5.9 °F 74% 30.59 in 10.0 mi NE 8.1 mph - N/A   Scattered Clouds
10:55 AM 12.9 °F 0.7 °F 6.3 °F 75% 30.59 in 10.0 mi NE 9.2 mph - N/A   Scattered Clouds
11:15 AM 13.1 °F 1.8 °F 6.6 °F 75% 30.57 in 10.0 mi ENE 8.1 mph - N/A   Overcast
11:35 AM 14.2 °F 0.7 °F 7.7 °F 75% 30.54 in 10.0 mi NE 11.5 mph - N/A   Overcast
11:55 AM 14.5 °F 1.1 °F 7.9 °F 75% 30.51 in 10.0 mi NE 11.5 mph - N/A   Overcast
12:15 PM 15.3 °F 0.8 °F 8.4 °F 74% 30.47 in 10.0 mi NE 13.8 mph - N/A   Mostly Cloudy
12:35 PM 15.6 °F 1.2 °F 8.8 °F 74% 30.46 in 10.0 mi NNE 13.8 mph - N/A   Overcast
12:55 PM 16.2 °F 3.9 °F 8.8 °F 73% 30.45 in 10.0 mi NNE 10.4 mph - N/A   Overcast
1:15 PM 16.5 °F 3.6 °F 8.8 °F 72% 30.44 in 10.0 mi ENE 11.5 mph - N/A   Overcast
1:35 PM 16.9 °F 6.4 °F 9.5 °F 73% 30.43 in 10.0 mi NE 8.1 mph - N/A   Mostly Cloudy
1:55 PM 17.2 °F 7.8 °F 9.0 °F 70% 30.44 in 10.0 mi NE 6.9 mph - N/A   Overcast
2:15 PM 17.2 °F 10.2 °F 8.8 °F 69% 30.43 in 10.0 mi NNE 4.6 mph - N/A   Overcast
2:35 PM 17.6 °F 6.4 °F 9.3 °F 70% 30.40 in 10.0 mi NE 9.2 mph - N/A   Overcast
2:55 PM 17.6 °F 9.3 °F 9.3 °F 70% 30.40 in 10.0 mi NE 5.8 mph - N/A   Overcast
3:15 PM 17.6 °F 10.7 °F 9.7 °F 71% 30.40 in 10.0 mi NE 4.6 mph - N/A   Overcast
3:35 PM 17.6 °F 9.3 °F 9.3 °F 70% 30.40 in 10.0 mi NE 5.8 mph - N/A   Overcast
3:55 PM 18.0 °F 7.7 °F 9.3 °F 69% 30.39 in 10.0 mi NE 8.1 mph - N/A   Overcast
4:15 PM 18.0 °F 6.1 °F 9.7 °F 70% 30.38 in 10.0 mi NE 10.4 mph - N/A   Overcast
4:35 PM 18.1 °F 7.9 °F 10.2 °F 71% 30.37 in 10.0 mi NE 8.1 mph - N/A   Overcast
4:55 PM 18.1 °F 6.3 °F 10.2 °F 71% 30.35 in 10.0 mi NE 10.4 mph - N/A   Overcast
5:15 PM 18.1 °F 6.3 °F 10.2 °F 71% 30.34 in 10.0 mi NE 10.4 mph - N/A   Overcast
5:35 PM 18.3 °F 8.2 °F 10.8 °F 72% 30.35 in 10.0 mi NE 8.1 mph - N/A   Overcast
5:55 PM 18.3 °F 8.2 °F 10.9 °F 73% 30.35 in 10.0 mi NE 8.1 mph - N/A   Overcast
6:15 PM 18.3 °F 8.2 °F 10.9 °F 73% 30.33 in 10.0 mi NE 8.1 mph - N/A   Overcast
6:35 PM 18.3 °F 7.3 °F 11.7 °F 75% 30.33 in 10.0 mi NE 9.2 mph - N/A   Overcast
6:55 PM 18.3 °F 7.3 °F 11.3 °F 74% 30.32 in 10.0 mi NE 9.2 mph - N/A   Overcast
7:15 PM 18.3 °F 8.2 °F 11.3 °F 74% 30.32 in 10.0 mi ENE 8.1 mph - N/A   Overcast
7:35 PM 18.3 °F 9.1 °F 11.7 °F 75% 30.31 in 10.0 mi ENE 6.9 mph - N/A   Overcast
7:55 PM 18.3 °F 7.3 °F 11.7 °F 75% 30.29 in 10.0 mi ENE 9.2 mph - N/A   Overcast
8:15 PM 18.3 °F 8.2 °F 11.5 °F 75% 30.29 in 10.0 mi ENE 8.1 mph - N/A   Overcast
8:35 PM 18.5 °F 7.5 °F 11.8 °F 75% 30.29 in 10.0 mi ENE 9.2 mph - N/A   Overcast
8:55 PM 18.3 °F 9.1 °F 11.8 °F 76% 30.28 in 10.0 mi East 6.9 mph - N/A   Overcast
9:15 PM 18.3 °F 6.6 °F 11.5 °F 75% 30.26 in 10.0 mi East 10.4 mph - N/A   Overcast
9:35 PM 18.5 °F 8.4 °F 11.5 °F 74% 30.26 in 10.0 mi East 8.1 mph - N/A   Overcast
9:55 PM 18.5 °F 9.3 °F 12.2 °F 76% 30.27 in 10.0 mi East 6.9 mph - N/A   Overcast
10:15 PM 18.5 °F 9.3 °F 12.0 °F 76% 30.27 in 10.0 mi East 6.9 mph - N/A   Overcast
10:35 PM 18.5 °F 9.3 °F 12.4 °F 77% 30.25 in 10.0 mi East 6.9 mph - N/A   Overcast
10:55 PM 18.9 °F 10.8 °F 12.7 °F 77% 30.26 in 10.0 mi East 5.8 mph - N/A   Overcast
11:15 PM 18.5 °F 10.4 °F 12.4 °F 77% 30.25 in 10.0 mi East 5.8 mph - N/A   Overcast
11:35 PM 18.5 °F 10.4 °F 12.7 °F 78% 30.24 in 10.0 mi East 5.8 mph - N/A   Overcast
11:55 PM 18.5 °F 11.7 °F 12.9 °F 79% 30.23 in 10.0 mi East 4.6 mph - N/A   Overcast